Tracking 20748 objects as of 4-Jun-2020
HD Live streaming from Space Station
objects crossing your sky now
Track the most recent launched group of Starlink satellites

THORAD AGENA D DEB

Track THORAD AGENA D DEB now!
10-day predictions


NORAD ID: 4432
Int'l Code: 1969-082ED
Perigee: 767.4 km
Apogee: 849.5 km
Inclination: 70.0 °
Period: 100.9 minutes
Semi major axis: 7179 km
RCS: 0.039 m2 (small)
Launch date: September 30, 1969
Source: United States (US)
Launch site: AIR FORCE WESTERN TEST RANGE (AFWTR)

Note: This is SATELLITE DEBRIS
aabbcc
Your satellite tracking list
Your tracking list is empty




NASA's NSSDC Master Catalog

Two Line Element Set (TLE):
1  4432U 69082ED  20156.58464938 +.00000079 +00000-0 +55188-4 0  9996
2  4432 069.9787 233.4857 0057155 272.5860 086.8720 14.27129681620422
Source of the keplerian elements: AFSPC